This is the latest recevied weather packets stored in our database for station/object W0AKY-13. If no packets are shown the sender has not sent any weather packets the latest 10 day(s).
| Time | Temp. | Humidity | Pressure | Rain* | Wind** | Luminosity | Snow |
|---|---|---|---|---|---|---|---|
| 1777933326 | 26.67° C | 34% | 1003.8 hPa | 0 mm | - | 278 W/m² | - |
| 1777933023 | 27.22° C | 34% | 1003.8 hPa | 0 mm | - | 195 W/m² | - |
| 1777932720 | 26.67° C | 32% | 1003.5 hPa | 0 mm | - | 189 W/m² | - |
| 1777932416 | 27.22° C | 33% | 1003.6 hPa | 0 mm | - | 339 W/m² | - |
| 1777932114 | 27.22° C | 32% | 1003.6 hPa | 0 mm | - | 327 W/m² | - |
| 1777931810 | 27.22° C | 32% | 1003.4 hPa | 0 mm | - | 271 W/m² | - |
| 1777931508 | 27.78° C | 33% | 1003.5 hPa | 0 mm | - | 331 W/m² | - |
| 1777931203 | 27.78° C | 31% | 1003.2 hPa | 0 mm | - | 392 W/m² | - |
| 1777930900 | 27.22° C | 33% | 1003.5 hPa | 0 mm | - | 392 W/m² | - |
| 1777930597 | 27.22° C | 33% | 1003.4 hPa | 0 mm | - | 312 W/m² | - |
| 1777930293 | 26.67° C | 34% | 1003.4 hPa | 0 mm | - | 400 W/m² | - |
| 1777929990 | 27.22° C | 33% | 1003.4 hPa | 0 mm | - | 210 W/m² | - |
| 1777929687 | 27.22° C | 33% | 1003.3 hPa | 0 mm | - | 261 W/m² | - |
| 1777929384 | 27.78° C | 31% | 1003.2 hPa | 0 mm | - | 261 W/m² | - |
| 1777929080 | 27.78° C | 33% | 1003.2 hPa | 0 mm | - | 274 W/m² | - |
| 1777928779 | 27.78° C | 32% | 1003.2 hPa | 0 mm | - | 281 W/m² | - |
| 1777928474 | 28.33° C | 36% | 1003.1 hPa | 0 mm | - | 358 W/m² | - |
| 1777928172 | 28.33° C | 30% | 1003.1 hPa | 0 mm | - | 383 W/m² | - |
| 1777927870 | 28.89° C | 31% | 1003 hPa | 0 mm | - | 427 W/m² | - |
| 1777927568 | 28.33° C | 31% | 1003.2 hPa | 0 mm | - | 438 W/m² | - |
| 1777927266 | 28.33° C | 31% | 1003.2 hPa | 0 mm | - | 326 W/m² | - |
| 1777926965 | 28.33° C | 31% | 1003.2 hPa | 0 mm | - | 516 W/m² | - |
| 1777926662 | 28.33° C | 30% | 1003.2 hPa | 0 mm | - | 333 W/m² | - |
| 1777926357 | 28.33° C | 32% | 1003 hPa | 0 mm | - | 567 W/m² | - |
| 1777926054 | 27.78° C | 30% | 1003.2 hPa | 0 mm | - | 469 W/m² | - |
* Rain latest hour (hover to see other rain measurements)
** Current wind speed in m/s (hover to see current wind gust speed)